Wind_Speed
9 11 13 14 14 15 15 16 17 20 22 25 28 31 34 35 37 39 41 42 43 43 43 42 42 41 40 39 40 41 44 47 49 51 54 55 56 56 55 55 54 54 55 56
12 13 15 15 15 16 16 18 19 21 24 27 29 32 35 36 38 40 42 43 43 44 43 43 43 42 40 39 40 42 45 48 50 52 54 55 55 55 54 53 52 51 50 51
14 15 16 15 15 16 17 20 21 24 26 29 30 33 36 38 40 42 43 44 44 44 44 44 43 42 40 40 41 43 47 49 52 53 54 54 54 53 51 49 48 46 45 46
15 16 16 16 16 16 18 21 23 25 27 29 31 34 36 38 40 42 44 45 46 46 45 45 44 43 41 41 42 45 48 50 52 53 53 53 52 50 48 46 43 40 38 39
17 18 17 17 16 18 20 21 24 26 28 30 32 36 38 40 42 44 46 47 48 48 47 47 45 43 42 42 43 46 49 51 52 53 52 52 50 47 44 40 36 34 33 33
19 19 18 19 19 20 22 23 25 27 29 31 33 36 39 42 44 46 47 48 49 49 48 48 46 44 43 43 44 47 49 51 52 52 52 50 47 44 40 35 31 27 26 26
19 20 20 20 20 22 24 26 27 29 31 33 36 38 40 42 44 47 48 49 49 49 49 48 47 45 44 43 45 47 49 50 51 51 51 48 45 41 36 32 27 23 20 19
19 19 22 21 22 23 24 26 28 30 32 34 37 40 42 44 46 48 49 49 49 48 48 48 47 45 44 43 44 46 48 49 49 49 49 46 43 39 34 30 24 19 15 14
20 20 21 22 23 24 26 27 29 31 33 36 38 41 44 46 48 49 50 49 48 48 47 47 47 46 44 43 44 46 47 48 48 47 47 44 42 37 32 28 22 16 12 11
20 21 22 23 24 25 27 28 30 32 34 37 40 43 45 48 49 50 50 49 48 47 47 46 46 45 44 43 43 45 46 46 46 45 44 43 40 36 31 26 21 15 9 7
20 21 22 23 24 26 28 29 31 33 35 38 41 44 47 49 50 49 49 49 48 47 46 46 45 44 43 42 42 43 44 45 44 44 43 41 38 34 31 26 21 14 8 3
20 21 22 24 25 27 29 30 32 34 37 39 43 46 48 49 49 49 49 48 47 46 46 45 44 43 42 41 41 42 42 43 43 42 41 39 36 33 29 26 21 16 9 1
20 21 22 24 26 27 30 32 34 36 39 41 44 47 48 48 48 48 48 47 46 45 44 44 43 42 41 40 40 40 41 41 41 41 39 37 34 31 28 25 21 16 10 5
20 21 23 25 27 29 31 34 36 38 41 43 45 46 46 46 47 48 48 47 46 45 44 43 42 41 40 38 38 39 39 39 39 39 37 35 32 29 27 23 19 16 12 7
22 23 25 27 29 32 34 36 39 41 42 44 45 45 44 44 46 47 48 47 46 44 43 43 42 40 39 37 36 37 37 37 37 37 36 34 31 28 25 22 18 14 11 8
25 27 29 30 32 34 37 39 40 42 43 44 44 43 43 43 45 47 48 48 46 44 43 42 41 39 38 36 35 35 35 36 35 35 35 33 31 28 25 21 18 14 10 8
30 31 32 34 35 37 39 40 41 42 43 42 42 41 41 42 44 46 47 47 46 44 43 41 40 38 37 35 33 33 33 34 33 33 33 32 30 27 24 21 17 14 11 9
34 35 36 36 38 39 40 40 40 41 41 41 40 40 40 42 43 44 45 45 45 44 43 41 39 37 36 34 32 31 31 31 31 31 31 31 29 26 24 20 16 13 11 9
37 37 38 39 39 40 39 39 39 39 40 39 39 38 39 41 42 43 44 44 43 43 42 40 38 37 35 33 30 28 28 29 29 28 29 29 28 26 24 21 16 14 11 9
40 40 40 40 40 39 39 39 38 39 39 39 38 38 38 40 41 42 43 42 42 42 41 39 37 35 33 31 29 26 26 26 26 26 26 26 26 25 24 22 18 16 14 11
43 42 42 41 41 39 39 38 38 39 39 38 38 38 38 40 40 41 41 41 41 41 39 37 35 34 32 29 27 24 23 23 23 24 24 24 24 24 23 22 20 17 16 15
45 44 43 42 42 40 39 38 38 39 39 39 38 38 38 38 38 39 39 38 38 38 38 36 34 32 30 28 25 22 20 20 20 21 21 21 21 21 22 21 20 18 17 16
46 46 45 45 44 42 39 39 39 39 39 39 39 39 39 37 36 36 36 36 36 36 36 35 33 31 29 26 23 20 18 17 17 17 18 19 18 19 19 20 19 19 17 16
51 49 47 46 46 41 39 39 39 39 39 39 38 38 37 36 35 34 33 33 33 34 34 33 31 29 27 25 22 19 16 14 13 13 15 16 16 16 16 17 18 18 17 17
54 53 51 48 45 42 40 41 41 40 39 38 38 37 36 35 33 33 32 32 32 32 32 31 29 27 25 23 21 17 15 12 10 10 11 12 13 13 13 14 15 16 16 16
57 55 52 49 46 44 43 43 41 40 38 37 37 37 35 34 33 32 31 30 30 30 30 29 28 25 24 22 20 17 14 11 8 7 7 8 9 10 10 10 11 12 13 14
58 56 54 52 50 48 46 44 41 40 39 38 38 38 37 35 33 31 30 29 29 28 28 27 26 24 23 21 19 16 13 10 8 6 5 5 5 5 6 7 8 9 9 10
Wind_Direction
340 339 340 341 340 336 334 333 333 333 333 334 335 336 337 337 336 336 336 335 334 331 331 330 327 324 320 317 315 314 314 314 313 313 311 309 306 302 298 293 288 281 274 268
336 335 333 333 331 330 329 331 333 332 332 334 335 335 337 337 338 338 338 336 335 333 333 332 329 326 322 320 318 317 318 318 317 316 315 312 308 305 301 296 291 284 276 268
333 331 328 325 328 327 327 329 333 333 333 334 335 335 337 338 339 338 338 337 336 335 334 334 332 329 326 323 322 322 322 321 321 320 318 315 312 309 304 299 293 286 277 268
328 326 328 325 324 323 325 329 332 333 333 334 336 336 338 338 338 338 338 338 337 336 336 336 334 331 329 327 326 326 326 325 325 324 322 321 318 314 309 304 297 288 278 269
323 326 323 320 323 325 328 331 332 333 334 335 337 336 338 339 339 339 339 339 338 337 337 337 336 333 331 329 329 329 329 329 329 328 327 326 323 320 316 310 301 290 279 268
318 320 320 321 325 326 328 331 334 335 336 337 338 338 338 339 339 339 338 338 338 337 337 338 337 334 332 331 331 332 332 332 333 333 332 331 329 327 323 318 309 295 283 268
311 315 316 320 323 325 329 332 334 335 337 337 338 338 338 338 338 338 338 338 338 337 337 338 338 336 334 333 334 334 335 336 336 336 336 335 334 332 329 325 318 304 286 266
306 310 312 318 322 325 327 330 332 334 336 336 337 336 336 337 337 338 338 338 337 336 336 338 338 338 336 335 336 337 338 339 339 339 340 340 339 338 335 332 326 314 295 266
305 307 310 315 320 323 326 329 331 333 334 335 335 335 336 337 337 338 338 337 337 336 337 338 339 339 339 338 338 340 341 342 343 343 344 345 345 344 341 339 333 324 301 268
303 305 309 313 317 322 325 328 329 331 333 334 334 334 335 337 338 338 337 337 337 337 337 339 340 340 340 340 341 342 344 345 346 348 349 349 350 350 349 345 342 334 313 262
303 304 307 311 315 320 323 326 327 329 330 332 333 334 335 337 338 338 338 338 338 338 338 340 341 342 341 342 343 344 347 348 350 351 352 353 355 356 356 355 353 350 338 270
304 304 307 311 315 319 322 324 326 327 329 330 332 334 336 338 340 340 341 340 339 338 339 340 342 343 343 343 344 346 349 351 352 354 355 357 359 0 1 2 3 4 8 13
303 304 307 311 315 318 321 323 324 325 327 329 332 334 336 339 342 343 343 342 341 339 339 341 343 344 344 345 346 348 350 352 354 356 358 0 1 3 4 5 9 14 22 50
303 306 309 312 316 318 320 321 322 324 326 329 331 334 336 339 342 344 345 344 342 341 340 342 343 345 345 346 347 349 351 353 355 358 0 3 4 5 6 9 12 18 29 45
305 309 311 313 315 317 318 319 320 323 325 328 330 333 336 338 342 344 345 345 343 342 341 342 344 345 346 346 348 350 353 354 357 0 3 5 7 8 10 12 15 19 31 47
306 309 310 312 313 314 315 317 319 321 324 326 329 331 334 337 340 343 345 345 344 343 342 342 343 345 346 347 348 351 353 356 358 2 5 8 10 13 15 17 20 26 36 49
304 306 307 308 310 311 313 315 317 320 322 324 326 328 331 335 338 341 343 344 344 343 342 342 343 345 346 348 349 351 353 356 359 3 7 9 11 14 17 20 25 32 42 54
301 303 304 305 307 309 310 313 316 318 319 321 323 326 329 333 336 339 341 343 343 343 343 342 343 345 346 348 349 351 353 356 0 4 8 11 13 15 18 21 27 34 43 52
296 298 299 301 302 304 307 310 313 315 316 318 320 323 326 330 333 337 340 342 343 343 343 342 343 345 346 347 349 350 353 357 1 5 8 12 16 20 23 26 32 38 43 50
289 291 293 296 298 300 303 306 308 311 313 314 316 318 322 326 330 334 338 341 342 343 343 342 342 344 345 347 348 350 352 356 2 6 9 13 18 22 26 31 38 45 51 56
286 288 290 292 294 296 299 301 303 306 309 310 312 314 317 321 325 330 334 338 340 342 342 342 342 342 344 346 347 349 352 356 2 7 11 15 19 25 30 35 42 51 57 62
286 287 289 290 292 294 296 297 299 302 305 306 307 311 315 319 323 327 331 334 338 340 340 341 340 341 343 344 346 347 349 354 1 6 12 17 21 27 34 38 45 53 61 67
283 284 285 287 290 292 293 292 293 297 300 301 304 309 313 316 320 324 328 332 335 338 339 339 339 339 340 342 344 345 346 351 358 5 13 19 24 30 36 42 49 56 64 72
280 281 282 283 285 288 286 285 288 291 295 298 302 306 309 313 316 320 324 328 332 335 337 337 337 337 338 340 342 343 343 345 353 2 11 19 26 32 39 46 53 61 68 75
278 279 279 279 280 279 277 280 284 286 290 295 298 301 303 307 312 316 321 324 328 332 334 335 335 335 335 338 339 339 338 338 344 355 6 16 26 33 41 48 54 61 70 77
276 277 277 277 276 275 275 276 278 281 286 289 291 293 297 303 308 311 315 319 323 327 331 333 334 333 333 335 336 336 333 329 328 340 353 6 21 33 42 50 59 66 72 81
274 274 274 274 274 274 274 275 276 279 281 282 285 288 293 297 301 305 310 314 317 322 326 330 331 331 330 331 333 332 328 320 307 304 319 339 360 23 43 56 64 72 79 86
Height
5856 5853 5851 5849 5846 5844 5841 5838 5834 5830 5825 5820 5815 5809 5803 5796 5789 5782 5774 5766 5757 5749 5741 5732 5724 5715 5707 5700 5693 5686 5678 5670 5661 5652 5642 5632 5623 5613 5605 5597 5591 5587 5584 5583
5853 5851 5848 5846 5844 5841 5837 5834 5830 5826 5821 5815 5810 5803 5798 5791 5784 5776 5768 5759 5751 5742 5733 5724 5715 5706 5697 5690 5683 5675 5666 5657 5647 5637 5626 5615 5604 5593 5584 5576 5569 5564 5561 5560
5851 5848 5846 5844 5841 5837 5834 5830 5826 5821 5817 5810 5805 5798 5792 5785 5778 5770 5762 5753 5744 5735 5725 5716 5706 5697 5688 5680 5672 5663 5654 5644 5634 5622 5611 5599 5587 5575 5565 5556 5549 5543 5540 5539
5848 5846 5843 5842 5838 5834 5831 5826 5821 5817 5812 5806 5800 5794 5787 5780 5772 5764 5756 5746 5737 5727 5718 5708 5697 5688 5678 5670 5661 5652 5643 5632 5620 5608 5596 5583 5570 5558 5548 5538 5531 5525 5522 5521
5845 5843 5840 5837 5834 5830 5826 5823 5818 5813 5808 5802 5796 5789 5782 5775 5766 5757 5748 5739 5729 5719 5709 5699 5689 5679 5670 5661 5652 5642 5632 5620 5608 5595 5582 5569 5556 5544 5533 5523 5515 5510 5507 5506
5841 5839 5836 5834 5830 5826 5823 5818 5814 5808 5803 5797 5791 5785 5777 5768 5760 5751 5742 5732 5722 5712 5701 5692 5681 5671 5662 5652 5643 5633 5622 5610 5597 5584 5571 5558 5545 5533 5521 5512 5504 5498 5495 5494
5837 5835 5832 5829 5825 5822 5819 5815 5809 5803 5798 5791 5785 5779 5772 5764 5755 5746 5736 5726 5716 5705 5694 5684 5674 5664 5654 5645 5635 5625 5613 5601 5588 5575 5562 5549 5536 5524 5513 5504 5497 5491 5487 5486
5834 5831 5829 5824 5821 5818 5814 5808 5803 5798 5792 5786 5779 5773 5766 5758 5749 5740 5730 5720 5709 5699 5688 5678 5667 5657 5648 5638 5628 5617 5606 5594 5581 5568 5555 5542 5530 5518 5508 5499 5492 5486 5483 5482
5830 5828 5823 5819 5816 5812 5808 5803 5798 5793 5787 5781 5774 5767 5760 5752 5743 5733 5723 5713 5703 5693 5682 5672 5661 5651 5641 5632 5622 5611 5600 5588 5575 5562 5549 5537 5525 5514 5505 5496 5489 5484 5481 5480
5823 5821 5818 5814 5811 5807 5803 5798 5793 5788 5782 5775 5769 5762 5754 5746 5737 5727 5717 5707 5697 5687 5676 5666 5655 5645 5635 5626 5616 5606 5595 5583 5571 5559 5546 5534 5523 5512 5503 5495 5488 5483 5479 5478
5818 5815 5812 5809 5806 5802 5797 5793 5787 5782 5776 5770 5763 5756 5748 5739 5730 5721 5711 5701 5691 5681 5671 5661 5651 5640 5631 5621 5612 5602 5591 5580 5568 5556 5544 5533 5522 5512 5503 5495 5488 5483 5479 5478
5813 5810 5807 5804 5800 5796 5792 5787 5782 5776 5770 5764 5757 5750 5742 5733 5724 5715 5705 5695 5685 5675 5666 5656 5646 5636 5626 5617 5608 5598 5588 5577 5566 5555 5544 5533 5522 5513 5505 5497 5490 5485 5481 5480
5806 5803 5801 5797 5794 5790 5785 5780 5775 5770 5764 5758 5751 5744 5736 5727 5718 5709 5699 5690 5680 5671 5661 5652 5642 5632 5623 5614 5605 5596 5586 5576 5565 5554 5544 5534 5524 5515 5507 5500 5494 5489 5485 5483
5799 5797 5794 5791 5787 5783 5778 5774 5768 5763 5757 5751 5745 5737 5730 5721 5713 5704 5695 5685 5676 5666 5657 5648 5638 5629 5620 5611 5603 5594 5585 5575 5565 5555 5545 5535 5526 5518 5511 5504 5498 5493 5490 5488
5792 5790 5787 5783 5780 5776 5771 5767 5761 5756 5750 5744 5738 5731 5724 5716 5708 5699 5690 5681 5671 5662 5653 5644 5635 5626 5617 5609 5601 5593 5584 5575 5565 5556 5546 5537 5529 5521 5514 5508 5503 5498 5495 5493
5785 5782 5779 5776 5772 5768 5764 5759 5754 5749 5743 5737 5731 5724 5717 5710 5702 5694 5686 5677 5668 5659 5650 5641 5632 5624 5615 5607 5599 5592 5584 5575 5566 5557 5548 5540 5532 5524 5518 5512 5507 5503 5500 5499
5777 5774 5771 5768 5764 5760 5756 5751 5746 5741 5736 5730 5724 5718 5712 5705 5697 5690 5681 5672 5664 5655 5647 5638 5630 5621 5613 5605 5598 5591 5583 5576 5568 5559 5551 5543 5535 5528 5522 5516 5511 5507 5505 5503
5769 5766 5763 5759 5755 5751 5747 5743 5738 5733 5728 5723 5717 5712 5706 5699 5693 5685 5677 5669 5660 5651 5643 5635 5627 5619 5611 5604 5597 5590 5583 5577 5569 5562 5554 5546 5538 5531 5525 5520 5515 5512 5509 5507
5759 5757 5753 5750 5746 5742 5738 5734 5730 5726 5721 5715 5710 5705 5699 5693 5687 5680 5673 5665 5657 5648 5640 5631 5624 5617 5609 5602 5596 5590 5584 5578 5571 5564 5557 5550 5543 5536 5530 5524 5520 5516 5513 5511
5749 5746 5743 5739 5736 5733 5729 5726 5722 5717 5712 5708 5703 5698 5692 5687 5681 5675 5668 5661 5653 5645 5637 5629 5622 5615 5608 5601 5595 5589 5584 5579 5573 5566 5560 5554 5547 5540 5535 5529 5524 5520 5517 5515
5737 5734 5732 5729 5725 5722 5719 5716 5712 5708 5704 5699 5695 5690 5685 5680 5675 5669 5662 5656 5648 5641 5633 5626 5619 5613 5606 5600 5594 5589 5584 5579 5574 5569 5563 5557 5552 5546 5540 5535 5530 5526 5523 5521
5723 5721 5719 5716 5714 5711 5708 5706 5702 5698 5695 5690 5686 5682 5677 5673 5668 5662 5657 5651 5644 5637 5630 5623 5617 5610 5604 5598 5593 5588 5584 5580 5576 5571 5566 5561 5556 5551 5546 5541 5537 5533 5530 5527
5709 5707 5705 5703 5701 5699 5697 5695 5692 5688 5685 5681 5677 5673 5669 5665 5661 5656 5651 5645 5639 5633 5626 5620 5613 5608 5602 5597 5592 5587 5583 5580 5577 5573 5569 5565 5560 5556 5551 5547 5543 5540 5537 5535
5694 5692 5691 5690 5688 5686 5685 5683 5680 5677 5674 5671 5668 5664 5661 5657 5653 5649 5644 5639 5634 5628 5622 5616 5610 5605 5600 5594 5590 5586 5582 5580 5577 5574 5571 5568 5564 5560 5557 5553 5550 5547 5545 5542
5676 5676 5675 5675 5674 5673 5672 5669 5667 5665 5663 5661 5658 5655 5652 5649 5645 5642 5638 5633 5628 5623 5618 5612 5607 5602 5597 5592 5588 5584 5581 5578 5576 5574 5572 5570 5567 5564 5561 5558 5556 5553 5551 5550
5658 5658 5658 5658 5658 5657 5656 5655 5654 5653 5651 5650 5647 5645 5642 5640 5637 5634 5630 5627 5622 5618 5613 5608 5603 5598 5594 5589 5585 5582 5579 5577 5575 5574 5572 5571 5569 5567 5565 5562 5560 5559 5557 5556
5639 5639 5639 5640 5641 5641 5641 5640 5640 5640 5639 5638 5637 5635 5632 5630 5628 5625 5623 5620 5616 5612 5608 5603 5599 5595 5590 5586 5582 5579 5577 5575 5573 5572 5571 5570 5569 5568 5567 5566 5564 5563 5562 5561